Find Local Weather

World > North America > United States > Virginia

Harrisonburg, Virginia Regional Weather

Lat: 38.44N, Lon: 78.87W
Wx Zone: VAZ026
Warning FLW WEATHER ALERT - HARD FREEZE WATCH (More Info. Click Here) Warning
Feedback
Expires:201804201300;;232149
ASUS41 KLWX 201210
RWRLWX

REGIONAL WEATHER ROUNDUP
NATIONAL WEATHER SERVICE BALTIMORE MD/WASHINGTON DC
800 AM EDT FRI APR 20 2018

Note: "FAIR" indicates few or no clouds below 12,000 feet
with no significant weather and/or obstructions to visibility.
 TC=TEMPERATURE CELSIUS

 * =Non NWS site. Station does not report precipitation (e.g. rain,
    snow, etc.), thunder, or fog.


VAZ025>031-201300-
SHENANDOAH VALLEY
  
CITY           SKY/WX    TMP DP  RH WIND       PRES   REMARKS
WINCHESTER*    FAIR      36  21  55 NW14      30.30R WCI  27          
FRONT ROYAL*   FAIR      37  19  48 NW12G17   30.29S WCI  30          
LURAY*         FAIR      39  19  45 W3        30.30R                  
NEW MARKET*    FAIR      36  21  53 CALM      30.31S                  
STAUNTON*      FAIR      37  19  48 NE3       30.33R                  
WAYNESBORO*    FAIR      36  19  49 N6        30.31R WCI  31          

$$


SKY/WX - Weather  TMP - Temperature  DP - Dewpoint  RH - Relative Humidity
WIND - Wind Direction/Speed PRES - Barometric Pressure